Weather History for Colby, KS

Change the Weather History Date:

Sunday, February 3, 2013

  Actual Average (KGLD) Record (KGLD)
Temperature  
Mean Temperature 34 °F 30 °F  
Max Temperature 50 °F 43 °F 74 °F (1962)
Min Temperature 17 °F 17 °F -19 °F (1996)
Degree Days  
Heating Degree Days 32 35  
Month to date heating degree days 105  
Since 1 July heating degree days 3608  
Cooling Degree Days 0 0  
Month to date cooling degree days 0  
Year to date cooling degree days 0  
Moisture  
Dew Point 25 °F    
Average Humidity 70    
Maximum Humidity 100    
Minimum Humidity 40    
Precipitation  
Precipitation 0.00 in 0.02 in 0.51 in (1960)
Month to date precipitation 0.05  
Year to date precipitation 0.43  
Snow  
Snow 0.00 in 0.20 in - ()
Month to date snowfall 0.6  
Since 1 July snowfall 19.2  
Snow Depth -    
Sea Level Pressure  
Sea Level Pressure 30.05 in    
Wind  
Wind Speed 7 mph (SW)    
Max Wind Speed 20 mph    
Max Gust Speed 25 mph    
Visibility 10 miles    
Events      
T = Trace of Precipitation, MM = Missing Value Source: NWS Daily Summary

Daily Weather History Graph

Daily Weather History Graph

Search for Another Location

Airport:

Trip Planner

Search our weather history database for the weather conditions in past years. The results will help you decide how hot, cold, wet, or windy it might be!

Date:

Astronomy

Feb. 03, 2013 Rise Set
Actual Time 7:49 AM CST 6:07 PM CST
Civil Twilight 7:21 AM CST 6:35 PM CST
Nautical Twilight 6:49 AM CST 7:07 PM CST
Astronomical Twilight 6:17 AM CST 7:39 PM CST
Moon 1:18 AM CST (2/3) 11:46 AM CST (2/3)
Length of Visible Light 11h 14m
Length of Day
10h 17m
Waning Gibbous, 48% of the Moon is Illuminated
Feb 3
Waning Gibbous
Feb 10
New
Feb 17
First Quarter
Feb 25
Full
Mar 4
Last Quarter

Hourly Weather History & Observations

Time (CST) Temp. Windchill Dew Point Humidity Pressure Visibility Wind Dir Wind Speed Gust Speed Precip Events Conditions
12:15 AM 30.2 °F 24.3 °F 23.0 °F 75% 30.29 in 10.0 mi NW 5.8 mph - N/A   Clear
12:35 AM 26.6 °F 20.0 °F 21.2 °F 80% 30.29 in 10.0 mi West 5.8 mph - N/A   Clear
12:55 AM 26.6 °F 21.2 °F 21.2 °F 80% 30.27 in 10.0 mi West 4.6 mph - N/A   Clear
1:15 AM 24.8 °F 16.9 °F 21.2 °F 86% 30.28 in 10.0 mi West 6.9 mph - N/A   Clear
1:35 AM 23.0 °F 13.1 °F 21.2 °F 93% 30.27 in 10.0 mi WNW 9.2 mph - N/A   Clear
2:15 AM 26.6 °F 17.5 °F 21.2 °F 80% 30.27 in 10.0 mi WNW 9.2 mph - N/A   Clear
2:35 AM 24.8 °F 16.9 °F 21.2 °F 86% 30.27 in 10.0 mi WNW 6.9 mph - N/A   Clear
2:55 AM 23.0 °F 13.9 °F 21.2 °F 93% 30.26 in 10.0 mi WNW 8.1 mph - N/A   Clear
3:15 AM 28.4 °F 19.1 °F 23.0 °F 80% 30.25 in 10.0 mi NNW 10.4 mph - N/A   Clear
3:35 AM 30.2 °F 26.7 °F 21.2 °F 69% 30.24 in 10.0 mi West 3.5 mph - N/A   Clear
3:55 AM 23.0 °F 18.4 °F 21.2 °F 93% 30.24 in 10.0 mi West 3.5 mph - N/A   Clear
4:15 AM 21.2 °F 14.9 °F 19.4 °F 93% 30.22 in 10.0 mi WNW 4.6 mph - N/A   Clear
4:35 AM 21.2 °F 13.6 °F 19.4 °F 93% 30.22 in 10.0 mi West 5.8 mph - N/A   Clear
4:55 AM 21.2 °F 13.6 °F 19.4 °F 93% 30.22 in 10.0 mi West 5.8 mph - N/A   Clear
5:15 AM 21.2 °F 14.9 °F 19.4 °F 93% 30.22 in 10.0 mi WSW 4.6 mph - N/A   Clear
5:35 AM 21.2 °F 14.9 °F 19.4 °F 93% 30.21 in 10.0 mi West 4.6 mph - N/A   Clear
5:55 AM 19.4 °F 12.8 °F 19.4 °F 100% 30.21 in 10.0 mi West 4.6 mph - N/A   Clear
6:15 AM 19.4 °F 11.5 °F 19.4 °F 100% 30.20 in 10.0 mi West 5.8 mph - N/A   Clear
6:35 AM 19.4 °F 11.5 °F 17.6 °F 93% 30.20 in 10.0 mi WSW 5.8 mph - N/A   Clear
6:55 AM 19.4 °F 11.5 °F 17.6 °F 93% 30.19 in 10.0 mi WSW 5.8 mph - N/A   Clear
7:15 AM 17.6 °F 10.7 °F 17.6 °F 100% 30.18 in 10.0 mi WSW 4.6 mph - N/A   Clear
7:35 AM 17.6 °F 10.7 °F 17.6 °F 100% 30.19 in 10.0 mi WSW 4.6 mph - N/A   Clear
7:55 AM 19.4 °F 11.5 °F 17.6 °F 93% 30.18 in 10.0 mi WSW 5.8 mph - N/A   Clear
8:15 AM 19.4 °F 11.5 °F 19.4 °F 100% 30.18 in 10.0 mi WSW 5.8 mph - N/A   Clear
8:35 AM 23.0 °F 15.8 °F 21.2 °F 93% 30.18 in 10.0 mi WSW 5.8 mph - N/A   Clear
8:55 AM 26.6 °F 20.0 °F 23.0 °F 86% 30.17 in 10.0 mi WSW 5.8 mph - N/A   Clear
9:15 AM 30.2 °F 25.4 °F 26.6 °F 86% 30.17 in 10.0 mi SW 4.6 mph - N/A   Clear
9:35 AM 32.0 °F 25.6 °F 28.4 °F 87% 30.16 in 10.0 mi SSW 6.9 mph - N/A   Clear
9:55 AM 35.6 °F 29.9 °F 30.2 °F 81% 30.14 in 10.0 mi SSW 6.9 mph - N/A   Clear
10:15 AM 39.2 °F 33.0 °F 28.4 °F 65% 30.14 in 10.0 mi South 9.2 mph - N/A   Clear
10:35 AM 41.0 °F 34.3 °F 28.4 °F 61% 30.13 in 10.0 mi South 11.5 mph - N/A   Clear
10:55 AM 42.8 °F 35.4 °F 26.6 °F 53% 30.12 in 10.0 mi South 15.0 mph - N/A   Clear
11:15 AM 44.6 °F 38.4 °F 28.4 °F 53% 30.11 in 10.0 mi South 12.7 mph - N/A   Clear
11:35 AM 46.4 °F 39.8 °F 26.6 °F 46% 30.10 in 10.0 mi South 16.1 mph - N/A   Clear
11:55 AM 46.4 °F 39.5 °F 26.6 °F 46% 30.08 in 10.0 mi South 17.3 mph 23.0 mph N/A   Clear
12:15 PM 46.4 °F 39.0 °F 26.6 °F 46% 30.06 in 10.0 mi South 19.6 mph 25.3 mph N/A   Clear
12:55 PM 46.4 °F 39.8 °F 26.6 °F 46% 30.02 in 10.0 mi South 16.1 mph 24.2 mph N/A   Clear
1:15 PM 48.2 °F - 26.6 °F 43% 30.01 in 10.0 mi South 12.7 mph 23.0 mph N/A   Clear
1:35 PM 50.0 °F - 26.6 °F 40% 29.99 in 10.0 mi South 16.1 mph - N/A   Clear
1:55 PM 50.0 °F - 26.6 °F 40% 29.98 in 10.0 mi South 17.3 mph 24.2 mph N/A   Clear
2:15 PM 50.0 °F - 28.4 °F 43% 29.96 in 10.0 mi South 13.8 mph 18.4 mph N/A   Clear
2:35 PM 50.0 °F - 28.4 °F 43% 29.95 in 10.0 mi South 13.8 mph - N/A   Clear
2:55 PM 50.0 °F - 28.4 °F 43% 29.93 in 10.0 mi South 11.5 mph 17.3 mph N/A   Clear
3:15 PM 50.0 °F - 28.4 °F 43% 29.92 in 10.0 mi South 10.4 mph - N/A   Clear
3:35 PM 50.0 °F - 28.4 °F 43% 29.91 in 10.0 mi South 9.2 mph - N/A   Clear
3:55 PM 50.0 °F - 28.4 °F 43% 29.91 in 10.0 mi South 9.2 mph - N/A   Clear
4:15 PM 50.0 °F - 28.4 °F 43% 29.90 in 10.0 mi South 6.9 mph - N/A   Clear
4:35 PM 50.0 °F - 28.4 °F 43% 29.89 in 10.0 mi South 9.2 mph - N/A   Clear
4:55 PM 50.0 °F - 28.4 °F 43% 29.88 in 10.0 mi South 4.6 mph - N/A   Clear
5:15 PM 48.2 °F - 28.4 °F 46% 29.87 in 10.0 mi South 4.6 mph - N/A   Clear
5:35 PM 48.2 °F - 28.4 °F 46% 29.87 in 10.0 mi Calm Calm - N/A   Clear
5:55 PM 46.4 °F - 28.4 °F 50% 29.87 in 10.0 mi Calm Calm - N/A   Clear
6:15 PM 46.4 °F 44.3 °F 28.4 °F 50% 29.87 in 10.0 mi South 4.6 mph - N/A   Clear
6:35 PM 42.8 °F 40.1 °F 28.4 °F 57% 29.86 in 10.0 mi SSW 4.6 mph - N/A   Clear
6:55 PM 41.0 °F 38.0 °F 28.4 °F 61% 29.86 in 10.0 mi SSW 4.6 mph - N/A   Clear
7:15 PM 37.4 °F 32.8 °F 26.6 °F 65% 29.85 in 10.0 mi SSW 5.8 mph - N/A   Clear
7:35 PM 37.4 °F 34.9 °F 26.6 °F 65% 29.84 in 10.0 mi SSW 3.5 mph - N/A   Clear
7:55 PM 37.4 °F 32.1 °F 26.6 °F 65% 29.84 in 10.0 mi SW 6.9 mph - N/A   Clear
8:15 PM 33.8 °F 28.6 °F 26.6 °F 75% 29.84 in 10.0 mi WSW 5.8 mph - N/A   Clear
8:35 PM 33.8 °F 26.4 °F 26.6 °F 75% 29.84 in 10.0 mi WSW 9.2 mph - N/A   Clear
8:55 PM 33.8 °F 26.4 °F 26.6 °F 75% 29.84 in 10.0 mi West 9.2 mph - N/A   Clear
9:15 PM 33.8 °F 26.4 °F 26.6 °F 75% 29.84 in 10.0 mi West 9.2 mph - N/A   Clear
9:35 PM 32.0 °F 25.6 °F 26.6 °F 80% 29.84 in 10.0 mi WSW 6.9 mph - N/A   Clear
9:55 PM 33.8 °F 27.7 °F 26.6 °F 75% 29.84 in 10.0 mi WSW 6.9 mph - N/A   Clear
10:15 PM 33.8 °F 27.0 °F 26.6 °F 75% 29.85 in 10.0 mi West 8.1 mph - N/A   Clear
10:35 PM 33.8 °F 27.0 °F 26.6 °F 75% 29.85 in 10.0 mi West 8.1 mph - N/A   Clear
10:55 PM 33.8 °F 27.0 °F 26.6 °F 75% 29.85 in 10.0 mi West 8.1 mph - N/A   Clear
11:15 PM 35.6 °F 27.5 °F 26.6 °F 70% 29.85 in 10.0 mi West 11.5 mph - N/A   Clear
11:35 PM 33.8 °F 23.9 °F 26.6 °F 75% 29.85 in 10.0 mi West 15.0 mph - N/A   Clear
11:55 PM 35.6 °F 27.5 °F 26.6 °F 70% 29.85 in 10.0 mi WNW 11.5 mph - N/A   Clear